Regional Weather Roundup
Issued by NWS

Home | Current Version | Previous Version | Text Only | Print | Product List | Glossary On
Versions: 1 2 3 4 5 6 7 8 9 10 11 12 13 14 15 16 17 18 19 20 21 22 23 24 25 26 27 28 29 30 31 32 33 34 35 36 37 38 39 40 41 42 43 44 45 46 47 48 49 50
000
ASUS43 KLSX 092207
RWRMO

WEATHER SUMMARY FOR MISSOURI
NATIONAL WEATHER SERVICE SPRINGFIELD MO
500 PM CDT WED JUL 09 2014

NOTE: "FAIR" INDICATES FEW OR NO CLOUDS BELOW 12,000 FEET WITH NO
       SIGNIFICANT WEATHER AND/OR OBSTRUCTIONS TO VISIBILITY.
       CURRENT SKY AND/OR WEATHER CONDITIONS ARE NOT AVAILABLE FOR
       CHILLICOTHE AND FARMINGTON.

MOZ001>031-035>038-043-044-053-054-092300-
...NORTHERN AND WESTERN MISSOURI...

CITY           SKY/WX    TMP DP  RH WIND       PRES   REMARKS
KANSAS CTY INT MOSUNNY   83  58  42 N7        30.05F
KANSAS C DTWN  SUNNY     85  59  41 NW7       30.03F
LEE`S SUMMIT   MOSUNNY   83  60  45 NW7       30.05S
ST JOSEPH      SUNNY     83  60  45 VRB3      30.05S
CHILLICOTHE      N/A     83  57  41 N7        30.05F
KIRKSVILLE     MOSUNNY   78  57  48 NW7       30.06S

$$
MOZ066>068-077>081-088>096-101>105-092300-
...SOUTHWEST MISSOURI...

CITY           SKY/WX    TMP DP  RH WIND       PRES   REMARKS
SPRINGFIELD    SUNNY     83  57  41 NW7       30.05S
JOPLIN         SUNNY     86  54  33 N6        30.03F

$$
MOZ032>034-039>042-045>050-055>058-069>072-092300-
...CENTRAL MISSOURI...

CITY           SKY/WX    TMP DP  RH WIND       PRES   REMARKS
COLUMBIA       PTSUNNY   84  58  40 N10       30.04R
JEFFERSON CITY SUNNY     82  57  42 NW9       30.02R
ROLLA          SUNNY     81  58  45 NW10      30.02S
SEDALIA        SUNNY     82  64  54 N8        30.05S
WHITEMAN AFB   SUNNY     81  57  43 N10       30.04S
OSAGE BEACH    SUNNY     82  61  47 NW3       30.03S

$$
MOZ051-052-059>065-092300-
...EAST CENTRAL MISSOURI...

CITY           SKY/WX    TMP DP  RH WIND       PRES   REMARKS
ST LOUIS INTL  MOSUNNY   84  57  39 N14       30.00S
SPIRIT OF STL  MOSUNNY   85  59  41 NW13      29.99R
ST CHARLES     SUNNY     82  57  42 N8        30.00R

$$
MOZ072>076-082>087-097>100-106>115-092300-
...SOUTH CENTRAL AND SOUTHEAST MISSOURI...

CITY           SKY/WX    TMP DP  RH WIND       PRES   REMARKS
CAPE GIRARDEAU SUNNY     86  60  41 NW8       29.98F
FARMINGTON     SUNNY     82  59  44 W5        30.03F
POPLAR BLUFF   SUNNY     86  60  41 N9        29.98F
WEST PLAINS    MOSUNNY   83  60  45 W5        30.05F

$$


USA.gov is the U.S. government's official web portal to all federal, state and local government web resources and services.